Flag for Canada Weather past 2 weeks in Fort Simpson, Northwest Territories, Canada

Now
46 °F

More clouds than sun.


Feels Like: 42 °F
Forecast: 38 / 45 °F
Wind: 8 mph from Southeast

Location: Fort Simpson

Current Time: Apr 21, 2015 at 6:01:41 PM

Latest Report: Apr 21, 2015 at 5:00 PM


Visibility: 15 mi

Pressure: 29.82 "Hg

Humidity: 50%

Dew point: 28 °F

Location of Fort SimpsonLocation

Historic Weather in Fort Simpson — Graph

°F

Fort Simpson temperature yesterday

Maximum temperature yesterday: 55 °F (at 4:00 PM)
Minimum temperature yesterday: 36 °F (at 6:00 AM)
Average temperature yesterday: 45 °F

Past Weeks' High & Low Weather Summary

 TemperatureHumidityPressure
High61 °F (Apr 10, 5:00 PM)93% (Apr 14, 11:00 PM)30.24 "Hg (Apr 14, 11:00 PM)
Low16 °F (Apr 15, 7:00 AM)21% (Apr 19, 5:00 PM)29.02 "Hg (Apr 11, 11:00 AM)
Average37 °F54%29.71 "Hg
* Reported Apr 6 4:00 PM — Apr 21 4:00 PM, Fort Simpson, Weather by CustomWeather, © 2015

Note: Actual official high and low records may vary slightly from our data, if they occured in-between our weather recording intervals... More about our weather records

Advertising

Fort Simpson weather history for previous 24 hours

 ConditionsComfort  
Time TempWeatherWind HumidityBarometerVisibility
4:00 PM
Tue, Apr 21
46 °FMore clouds than sun.8 mph50%29.83 "Hg15 mi
3:00 PM45 °FMore clouds than sun.6 mph53%29.83 "Hg15 mi
2:00 PM43 °FOvercast.6 mph53%29.83 "Hg15 mi
1:00 PM41 °FOvercast.8 mph57%29.83 "Hg15 mi
12:00 PM41 °FBroken clouds.6 mph57%29.85 "Hg15 mi
11:00 AM37 °FMore clouds than sun.7 mph65%29.84 "Hg15 mi
10:00 AM37 °FMostly cloudy.7 mph65%29.84 "Hg15 mi
9:00 AM37 °FBroken clouds.8 mph60%29.84 "Hg15 mi
8:00 AM37 °FPartly sunny.8 mph60%29.84 "Hg15 mi
7:00 AM36 °FPartly cloudy.6 mph65%29.83 "Hg15 mi
6:00 AM37 °FPassing clouds.8 mph60%29.83 "Hg15 mi
5:00 AM37 °FPassing clouds.9 mph60%29.83 "Hg15 mi
4:00 AM37 °FPassing clouds.8 mph65%29.83 "Hg15 mi
3:00 AM37 °FPassing clouds.10 mph65%29.84 "Hg15 mi
2:00 AM39 °FPassing clouds.5 mph61%29.84 "Hg15 mi
1:00 AM39 °FPassing clouds.6 mph61%29.85 "Hg15 mi
12:00 AM41 °FPassing clouds.6 mph57%29.85 "Hg15 mi
11:00 PM
Mon, Apr 20
43 °FPassing clouds.9 mph53%29.85 "Hg15 mi
10:00 PM45 °FPartly sunny.5 mph49%29.84 "Hg15 mi
9:00 PM48 °FPartly sunny.6 mph43%29.83 "Hg15 mi
8:00 PM52 °FPartly sunny.6 mph38%29.84 "Hg15 mi
7:00 PM54 °FBroken clouds.8 mph33%29.83 "Hg15 mi
6:00 PM54 °FPartly sunny.8 mph33%29.83 "Hg15 mi
Weather by CustomWeather, © 2015

See weather overviewHow to use our weather pages